Flag for Russia Weather past 2 weeks in Samara, Russia

Now
63 °F

Clear.


Feels Like: 63 °F
Forecast: 53 / 87 °F
Wind: 3 mph from South

Location: Samara

Current Time: Jul 29, 2014 at 11:19:27 PM

Latest Report: Jul 29, 2014 at 10:30 PM


Visibility: 10 mi

Pressure: 30.07 "Hg

Humidity: 56%

Dew point: 46 °F

Location of SamaraLocation

Historic Weather in Samara — Graph

°F

Samara temperature yesterday

Maximum temperature yesterday: 70 °F (at 1:00 PM)
Minimum temperature yesterday: 48 °F (at 5:00 AM)
Average temperature yesterday: 60 °F

Past Weeks' High & Low Weather Summary

 TemperatureHumidityPressure
High91 °F (Jul 16, 4:00 PM)83% (Jul 25, 7:30 AM)30.15 "Hg (Jul 25, 7:30 AM)
Low46 °F (Jul 20, 4:00 AM)22% (Jul 16, 3:30 PM)29.71 "Hg (Jul 20, 6:00 PM)
Average65 °F47%29.93 "Hg
* Reported Jul 14 10:00 PM — Jul 29 10:00 PM, Samara, Weather by CustomWeather, © 2014

Note: Actual official high and low records may vary slightly from our data, if they occured in-between our weather recording intervals... More about our weather records

Advertising

Samara weather history for previous 24 hours

 ConditionsComfort  
Time TempWeatherWind HumidityBarometerVisibility
10:00 PM
Jul 29
63 °FClear.3 mph56%30.07 "Hg10 mi
9:30 PM64 °FSunny.3 mph49%30.07 "Hg10 mi
9:00 PM66 °FSunny.1 mph46%30.07 "Hg10 mi
8:30 PM66 °FSunny.1 mph46%30.07 "Hg10 mi
8:00 PM70 °FSunny.6 mph40%30.04 "Hg10 mi
7:30 PM72 °FSunny.8 mph38%30.04 "Hg10 mi
7:00 PM72 °FSunny.10 mph38%30.04 "Hg10 mi
6:30 PM73 °FSunny.10 mph33%30.04 "Hg10 mi
6:00 PM75 °FSunny.3 mph31%30.07 "Hg10 mi
5:30 PM75 °FSunny.3 mph29%30.07 "Hg10 mi
5:00 PM75 °FSunny.6 mph29%30.07 "Hg10 mi
4:30 PM73 °FSunny.3 mph31%30.07 "Hg10 mi
4:00 PM73 °FSunny.3 mph31%30.09 "Hg10 mi
3:30 PM73 °FSunny.6 mph31%30.09 "Hg10 mi
3:00 PM72 °FPassing clouds.8 mph33%30.09 "HgN/A
2:30 PM72 °FSunny.1 mph33%30.09 "Hg10 mi
2:00 PM73 °FSunny.3 mph31%30.09 "Hg10 mi
1:30 PM72 °FBroken clouds.3 mph33%30.09 "HgN/A
1:00 PM70 °FBroken clouds.6 mph35%30.12 "HgN/A
12:30 PM68 °FBroken clouds.3 mph40%30.12 "HgN/A
12:00 PM68 °FBroken clouds.3 mph38%30.12 "HgN/A
11:30 AM68 °FBroken clouds.3 mph40%30.12 "HgN/A
11:00 AM64 °FCloudy.3 mph43%30.15 "HgN/A
10:30 AM64 °FCloudy.3 mph43%30.15 "HgN/A
10:00 AM63 °FCloudy.3 mph49%30.15 "HgN/A
9:30 AM61 °FCloudy.1 mph52%30.15 "HgN/A
9:00 AM59 °FCloudy.3 mph55%30.15 "HgN/A
8:30 AM57 °FCloudy.3 mph59%30.15 "HgN/A
8:00 AM57 °FCloudy.3 mph59%30.15 "HgN/A
7:30 AM55 °FBroken clouds.3 mph63%30.15 "HgN/A
7:00 AM54 °FBroken clouds.1 mph67%30.12 "HgN/A
6:30 AM54 °FBroken clouds.1 mph63%30.12 "HgN/A
6:00 AM52 °FBroken clouds.1 mph72%30.12 "HgN/A
5:30 AM50 °FPassing clouds.3 mph76%30.12 "HgN/A
5:00 AM48 °FClear.3 mph71%30.12 "Hg10 mi
4:30 AM48 °FClear.3 mph71%30.12 "Hg10 mi
4:00 AM48 °FClear.3 mph71%30.12 "Hg10 mi
3:30 AM48 °FClear.3 mph71%30.09 "Hg10 mi
3:00 AM52 °FClear.3 mph67%30.09 "Hg10 mi
2:30 AM50 °FClear.1 mph67%30.09 "Hg10 mi
2:00 AM52 °FClear.3 mph67%30.09 "Hg10 mi
1:30 AM52 °FClear.3 mph62%30.09 "Hg10 mi
1:00 AM54 °FClear.3 mph63%30.09 "Hg10 mi
12:30 AM54 °FClear.1 mph58%30.09 "Hg10 mi
12:00 AM54 °FClear.3 mph63%30.09 "Hg10 mi
11:30 PM
Jul 28
55 °FClear.3 mph59%30.09 "Hg10 mi
11:00 PM55 °FClear.3 mph55%30.09 "Hg10 mi
Weather by CustomWeather, © 2014

See weather overviewHow to use our weather pages